"Sample Date","Sample Time","Sample Value","Units","Flow Rate","Sample Interval","Number Channels","Micron Size 0","Counts/Channel 0","Micron Size 1","Counts/Channel 1","Micron Size 2","Counts/Channel 2","Micron Size 3","Counts/Channel 3","Micron Size 4","Counts/Channel 4","Micron Size 5","Counts/Channel 5","Micron Size 6","Counts/Channel 6","Micron Size 7","Counts/Channel 7","Micron Size 8","Counts/Channel 8","Micron Size 9","Counts/Channel 9","Micron Size 10","Counts/Channel 10","Micron Size 11","Counts/Channel 11","Micron Size 12","Counts/Channel 12","Micron Size 13","Counts/Channel 13","Micron Size 14","Counts/Channel 14","Micron Size 15","Counts/Channel 15","Micron Size 16","Counts/Channel 16","Micron Size 17","Counts/Channel 17","Micron Size 18","Counts/Channel 18","Micron Size 19","Counts/Channel 19","Micron Size 20","Counts/Channel 20","Micron Size 21","Counts/Channel 21","Micron Size 22","Counts/Channel 22","Micron Size 23","Counts/Channel 23","Micron Size 24","Counts/Channel 24","Micron Size 25","Counts/Channel 25","Micron Size 26","Counts/Channel 26","Micron Size 27","Counts/Channel 27","Micron Size 28","Counts/Channel 28","Micron Size 29","Counts/Channel 29","Micron Size 30","Counts/Channel 30","Micron Size 31","Counts/Channel 31"
"03/07/08","03:00:02",11373.000,"cc",28326.914,6.00,6,0.100,10238.000,0.200,725.000,0.300,284.000,0.500,122.000,1.000,4.000,5.000,0
"03/07/08","03:00:08",11404.000,"cc",28249.326,6.00,6,0.100,10292.000,0.200,728.000,0.300,276.000,0.500,103.000,1.000,5.000,5.000,0
"03/07/08","03:00:14",11246.000,"cc",28376.539,6.00,6,0.100,10200.000,0.200,657.000,0.300,279.000,0.500,104.000,1.000,6.000,5.000,0
"03/07/08","03:00:20",11502.000,"cc",28331.043,6.00,6,0.100,10358.000,0.200,710.000,0.300,308.000,0.500,117.000,1.000,9.000,5.000,0
"03/07/08","03:00:26",11165.000,"cc",28278.533,6.00,6,0.100,10076.000,0.200,701.000,0.300,285.000,0.500,96.000,1.000,7.000,5.000,0
"03/07/08","03:00:32",11333.000,"cc",28271.938,6.00,6,0.100,10129.000,0.200,749.000,0.300,333.000,0.500,115.000,1.000,7.000,5.000,0
"03/07/08","03:00:38",11488.000,"cc",28307.154,6.00,6,0.100,10373.000,0.200,719.000,0.300,293.000,0.500,96.000,1.000,7.000,5.000,0
"03/07/08","03:00:44",11337.000,"cc",28333.133,6.00,6,0.100,10252.000,0.200,732.000,0.300,259.000,0.500,91.000,1.000,3.000,5.000,0
"03/07/08","03:00:50",11369.000,"cc",28267.211,6.00,6,0.100,10269.000,0.200,719.000,0.300,272.000,0.500,105.000,1.000,4.000,5.000,0
"03/07/08","03:00:56",11596.000,"cc",28338.463,6.00,6,0.100,10357.000,0.200,766.000,0.300,351.000,0.500,113.000,1.000,9.000,5.000,0
"03/07/08","03:01:02",11379.000,"cc",28363.785,6.00,6,0.100,10164.000,0.200,769.000,0.300,334.000,0.500,107.000,1.000,5.000,5.000,0
"03/07/08","03:01:08",11334.000,"cc",28285.590,6.00,6,0.100,10257.000,0.200,656.000,0.300,312.000,0.500,104.000,1.000,5.000,5.000,0
"03/07/08","03:01:14",11562.000,"cc",28329.139,6.00,6,0.100,10348.000,0.200,797.000,0.300,313.000,0.500,95.000,1.000,9.000,5.000,0
"03/07/08","03:01:20",11490.000,"cc",28301.572,6.00,6,0.100,10357.000,0.200,744.000,0.300,301.000,0.500,85.000,1.000,3.000,5.000,0
"03/07/08","03:01:26",11538.000,"cc",28269.715,6.00,6,0.100,10364.000,0.200,744.000,0.300,314.000,0.500,112.000,1.000,4.000,5.000,0
"03/07/08","03:01:32",11550.000,"cc",28360.262,6.00,6,0.100,10321.000,0.200,816.000,0.300,305.000,0.500,99.000,1.000,9.000,5.000,0
"03/07/08","03:01:38",11184.000,"cc",28372.465,6.00,6,0.100,10065.000,0.200,718.000,0.300,283.000,0.500,113.000,1.000,5.000,5.000,0
"03/07/08","03:01:44",11485.000,"cc",28347.465,6.00,6,0.100,10267.000,0.200,752.000,0.300,318.000,0.500,138.000,1.000,10.000,5.000,0
"03/07/08","03:01:50",11369.000,"cc",28237.338,6.00,6,0.100,10171.000,0.200,731.000,0.300,345.000,0.500,117.000,1.000,5.000,5.000,0
"03/07/08","03:01:56",11082.000,"cc",28326.111,6.00,6,0.100,9958.000,0.200,733.000,0.300,261.000,0.500,121.000,1.000,9.000,5.000,0
"03/07/08","03:02:02",11628.000,"cc",28382.699,6.00,6,0.100,10451.000,0.200,740.000,0.300,322.000,0.500,110.000,1.000,5.000,5.000,0
"03/07/08","03:02:08",11238.000,"cc",28409.166,6.00,6,0.100,10166.000,0.200,689.000,0.300,297.000,0.500,81.000,1.000,5.000,5.000,0
"03/07/08","03:02:14",11526.000,"cc",28221.863,6.00,6,0.100,10368.000,0.200,728.000,0.300,301.000,0.500,121.000,1.000,8.000,5.000,0
"03/07/08","03:02:20",11428.000,"cc",28265.719,6.00,6,0.100,10310.000,0.200,682.000,0.300,289.000,0.500,139.000,1.000,8.000,5.000,0
"03/07/08","03:02:26",11523.000,"cc",28294.811,6.00,6,0.100,10302.000,0.200,807.000,0.300,301.000,0.500,107.000,1.000,6.000,5.000,0
"03/07/08","03:02:32",11712.000,"cc",28273.578,6.00,6,0.100,10548.000,0.200,736.000,0.300,292.000,0.500,122.000,1.000,14.000,5.000,0
"03/07/08","03:02:38",11644.000,"cc",28357.926,6.00,6,0.100,10517.000,0.200,746.000,0.300,285.000,0.500,88.000,1.000,8.000,5.000,0
"03/07/08","03:02:44",11494.000,"cc",28328.617,6.00,6,0.100,10312.000,0.200,763.000,0.300,294.000,0.500,113.000,1.000,12.000,5.000,0
"03/07/08","03:02:50",11529.000,"cc",28326.215,6.00,6,0.100,10360.000,0.200,748.000,0.300,301.000,0.500,114.000,1.000,6.000,5.000,0
"03/07/08","03:02:56",11566.000,"cc",28280.906,6.00,6,0.100,10387.000,0.200,749.000,0.300,314.000,0.500,106.000,1.000,10.000,5.000,0
"03/07/08","03:03:02",11397.000,"cc",28279.889,6.00,6,0.100,10250.000,0.200,736.000,0.300,297.000,0.500,110.000,1.000,4.000,5.000,0
"03/07/08","03:03:08",11327.000,"cc",28370.313,6.00,6,0.100,10325.000,0.200,659.000,0.300,241.000,0.500,95.000,1.000,7.000,5.000,0
"03/07/08","03:03:14",11320.000,"cc",28260.352,6.00,6,0.100,10257.000,0.200,689.000,0.300,257.000,0.500,114.000,1.000,3.000,5.000,0
"03/07/08","03:03:20",11712.000,"cc",28336.941,6.00,6,0.100,10503.000,0.200,766.000,0.300,319.000,0.500,116.000,1.000,8.000,5.000,0
"03/07/08","03:03:26",11609.000,"cc",28306.609,6.00,6,0.100,10466.000,0.200,729.000,0.300,274.000,0.500,136.000,1.000,4.000,5.000,0
"03/07/08","03:03:32",11573.000,"cc",28300.527,6.00,6,0.100,10505.000,0.200,724.000,0.300,259.000,0.500,83.000,1.000,2.000,5.000,0
"03/07/08","03:03:38",11778.000,"cc",28329.088,6.00,6,0.100,10562.000,0.200,794.000,0.300,302.000,0.500,108.000,1.000,12.000,5.000,0
"03/07/08","03:03:44",11624.000,"cc",28300.797,6.00,6,0.100,10410.000,0.200,773.000,0.300,308.000,0.500,124.000,1.000,9.000,5.000,0
"03/07/08","03:03:50",11535.000,"cc",28366.606,6.00,6,0.100,10465.000,0.200,695.000,0.300,261.000,0.500,107.000,1.000,7.000,5.000,0
"03/07/08","03:03:56",11519.000,"cc",28328.160,6.00,6,0.100,10354.000,0.200,763.000,0.300,308.000,0.500,89.000,1.000,5.000,5.000,0
"03/07/08","03:04:02",11453.000,"cc",28375.479,6.00,6,0.100,10325.000,0.200,717.000,0.300,288.000,0.500,116.000,1.000,7.000,5.000,0
"03/07/08","03:04:08",11320.000,"cc",28311.650,6.00,6,0.100,10199.000,0.200,701.000,0.300,292.000,0.500,122.000,1.000,6.000,5.000,0
"03/07/08","03:04:14",11641.000,"cc",28231.773,6.00,6,0.100,10445.000,0.200,759.000,0.300,315.000,0.500,117.000,1.000,5.000,5.000,0
"03/07/08","03:04:20",11915.000,"cc",28295.318,6.00,6,0.100,10638.000,0.200,831.000,0.300,295.000,0.500,142.000,1.000,9.000,5.000,0
"03/07/08","03:04:26",11751.000,"cc",28266.943,6.00,6,0.100,10515.000,0.200,735.000,0.300,346.000,0.500,142.000,1.000,13.000,5.000,0
"03/07/08","03:04:32",11681.000,"cc",28299.441,6.00,6,0.100,10417.000,0.200,819.000,0.300,301.000,0.500,134.000,1.000,10.000,5.000,0
"03/07/08","03:04:38",11562.000,"cc",28409.803,6.00,6,0.100,10425.000,0.200,695.000,0.300,308.000,0.500,126.000,1.000,8.000,5.000,0
"03/07/08","03:04:44",11428.000,"cc",28357.410,6.00,6,0.100,10232.000,0.200,783.000,0.300,284.000,0.500,123.000,1.000,6.000,5.000,0
"03/07/08","03:04:50",11474.000,"cc",28276.391,6.00,6,0.100,10313.000,0.200,691.000,0.300,347.000,0.500,116.000,1.000,7.000,5.000,0
"03/07/08","03:04:56",11351.000,"cc",28349.184,6.00,6,0.100,10197.000,0.200,709.000,0.300,312.000,0.500,127.000,1.000,6.000,5.000,0
"03/07/08","03:05:02",11573.000,"cc",28309.600,6.00,6,0.100,10462.000,0.200,755.000,0.300,268.000,0.500,84.000,1.000,4.000,5.000,0
"03/07/08","03:05:08",11457.000,"cc",28362.402,6.00,6,0.100,10226.000,0.200,775.000,0.300,310.000,0.500,136.000,1.000,10.000,5.000,0
"03/07/08","03:05:14",11300.000,"cc",28290.465,6.00,6,0.100,10170.000,0.200,717.000,0.300,291.000,0.500,116.000,1.000,6.000,5.000,0
"03/07/08","03:05:20",11135.000,"cc",28239.713,6.00,6,0.100,10056.000,0.200,716.000,0.300,265.000,0.500,94.000,1.000,4.000,5.000,0
"03/07/08","03:05:26",11146.000,"cc",28380.877,6.00,6,0.100,10139.000,0.200,690.000,0.300,234.000,0.500,82.000,1.000,1.000,5.000,0
"03/07/08","03:05:32",11408.000,"cc",28301.205,6.00,6,0.100,10323.000,0.200,709.000,0.300,280.000,0.500,92.000,1.000,4.000,5.000,0
"03/07/08","03:05:38",11441.000,"cc",28310.020,6.00,6,0.100,10283.000,0.200,790.000,0.300,270.000,0.500,94.000,1.000,4.000,5.000,0
"03/07/08","03:05:44",11231.000,"cc",28424.315,6.00,6,0.100,10221.000,0.200,688.000,0.300,241.000,0.500,76.000,1.000,5.000,5.000,0
"03/07/08","03:05:50",11332.000,"cc",28316.572,6.00,6,0.100,10309.000,0.200,657.000,0.300,270.000,0.500,91.000,1.000,5.000,5.000,0
"03/07/08","03:05:56",11602.000,"cc",28226.508,6.00,6,0.100,10465.000,0.200,771.000,0.300,275.000,0.500,86.000,1.000,5.000,5.000,0
"03/07/08","03:06:02",11336.000,"cc",28337.799,6.00,6,0.100,10193.000,0.200,754.000,0.300,280.000,0.500,106.000,1.000,3.000,5.000,0
"03/07/08","03:06:08",11307.000,"cc",28351.629,6.00,6,0.100,10283.000,0.200,665.000,0.300,264.000,0.500,90.000,1.000,5.000,5.000,0
"03/07/08","03:06:14",11062.000,"cc",28325.924,6.00,6,0.100,10035.000,0.200,680.000,0.300,247.000,0.500,98.000,1.000,2.000,5.000,0
"03/07/08","03:06:20",11322.000,"cc",28266.635,6.00,6,0.100,10248.000,0.200,712.000,0.300,276.000,0.500,81.000,1.000,5.000,5.000,0
"03/07/08","03:06:26",11286.000,"cc",28299.520,6.00,6,0.100,10205.000,0.200,705.000,0.300,275.000,0.500,98.000,1.000,3.000,5.000,0
"03/07/08","03:06:32",11032.000,"cc",28353.828,6.00,6,0.100,10031.000,0.200,705.000,0.300,223.000,0.500,68.000,1.000,5.000,5.000,0
"03/07/08","03:06:38",11227.000,"cc",28286.756,6.00,6,0.100,10253.000,0.200,666.000,0.300,220.000,0.500,81.000,1.000,7.000,5.000,0
"03/07/08","03:06:44",11211.000,"cc",28303.607,6.00,6,0.100,10170.000,0.200,698.000,0.300,264.000,0.500,74.000,1.000,5.000,5.000,0
"03/07/08","03:06:50",11048.000,"cc",28322.188,6.00,6,0.100,10028.000,0.200,690.000,0.300,237.000,0.500,84.000,1.000,9.000,5.000,0
"03/07/08","03:06:56",11089.000,"cc",28304.844,6.00,6,0.100,10112.000,0.200,667.000,0.300,216.000,0.500,92.000,1.000,2.000,5.000,0
"03/07/08","03:07:02",11229.000,"cc",28320.648,6.00,6,0.100,10142.000,0.200,723.000,0.300,271.000,0.500,86.000,1.000,7.000,5.000,0
"03/07/08","03:07:08",11173.000,"cc",28278.867,6.00,6,0.100,10196.000,0.200,637.000,0.300,246.000,0.500,90.000,1.000,4.000,5.000,0
"03/07/08","03:07:14",11032.000,"cc",28258.863,6.00,6,0.100,10092.000,0.200,620.000,0.300,257.000,0.500,62.000,1.000,1.000,5.000,0
"03/07/08","03:07:20",11169.000,"cc",28362.539,6.00,6,0.100,10118.000,0.200,710.000,0.300,267.000,0.500,68.000,1.000,6.000,5.000,0
"03/07/08","03:07:26",11209.000,"cc",28405.408,6.00,6,0.100,10232.000,0.200,651.000,0.300,251.000,0.500,73.000,1.000,2.000,5.000,0
"03/07/08","03:07:32",11141.000,"cc",28289.578,6.00,6,0.100,10088.000,0.200,685.000,0.300,261.000,0.500,100.000,1.000,7.000,5.000,0
"03/07/08","03:07:38",11021.000,"cc",28310.221,6.00,6,0.100,10028.000,0.200,674.000,0.300,233.000,0.500,80.000,1.000,6.000,5.000,0
"03/07/08","03:07:44",11355.000,"cc",28310.440,6.00,6,0.100,10326.000,0.200,675.000,0.300,261.000,0.500,86.000,1.000,7.000,5.000,0
"03/07/08","03:07:50",11244.000,"cc",28295.234,6.00,6,0.100,10187.000,0.200,713.000,0.300,257.000,0.500,84.000,1.000,3.000,5.000,0
"03/07/08","03:07:56",11111.000,"cc",28322.348,6.00,6,0.100,10148.000,0.200,635.000,0.300,243.000,0.500,83.000,1.000,2.000,5.000,0
"03/07/08","03:08:02",11231.000,"cc",28273.162,6.00,6,0.100,10275.000,0.200,658.000,0.300,223.000,0.500,70.000,1.000,5.000,5.000,0
"03/07/08","03:08:08",11172.000,"cc",28384.248,6.00,6,0.100,10152.000,0.200,694.000,0.300,239.000,0.500,86.000,1.000,1.000,5.000,0
"03/07/08","03:08:14",11252.000,"cc",28322.303,6.00,6,0.100,10245.000,0.200,631.000,0.300,268.000,0.500,103.000,1.000,5.000,5.000,0
"03/07/08","03:08:20",11036.000,"cc",28308.682,6.00,6,0.100,9996.000,0.200,697.000,0.300,265.000,0.500,75.000,1.000,3.000,5.000,0
"03/07/08","03:08:26",11197.000,"cc",28249.842,6.00,6,0.100,10174.000,0.200,690.000,0.300,255.000,0.500,75.000,1.000,3.000,5.000,0
"03/07/08","03:08:32",11262.000,"cc",28333.514,6.00,6,0.100,10236.000,0.200,681.000,0.300,273.000,0.500,70.000,1.000,2.000,5.000,0
"03/07/08","03:08:38",11166.000,"cc",28313.504,6.00,6,0.100,10138.000,0.200,699.000,0.300,244.000,0.500,80.000,1.000,5.000,5.000,0
"03/07/08","03:08:44",11262.000,"cc",28338.270,6.00,6,0.100,10257.000,0.200,691.000,0.300,225.000,0.500,86.000,1.000,3.000,5.000,0
"03/07/08","03:08:50",10948.000,"cc",28348.184,6.00,6,0.100,10010.000,0.200,637.000,0.300,231.000,0.500,66.000,1.000,4.000,5.000,0
"03/07/08","03:08:56",10705.000,"cc",28325.166,6.00,6,0.100,9821.000,0.200,630.000,0.300,213.000,0.500,40.000,1.000,1.000,5.000,0
"03/07/08","03:09:02",11045.000,"cc",28319.799,6.00,6,0.100,10046.000,0.200,627.000,0.300,277.000,0.500,87.000,1.000,8.000,5.000,0
"03/07/08","03:09:08",10980.000,"cc",28310.621,6.00,6,0.100,9993.000,0.200,666.000,0.300,257.000,0.500,63.000,1.000,1.000,5.000,0
"03/07/08","03:09:14",10946.000,"cc",28314.736,6.00,6,0.100,9996.000,0.200,680.000,0.300,226.000,0.500,43.000,1.000,1.000,5.000,0
"03/07/08","03:09:20",11076.000,"cc",28303.629,6.00,6,0.100,10033.000,0.200,647.000,0.300,295.000,0.500,97.000,1.000,4.000,5.000,0
"03/07/08","03:09:26",10909.000,"cc",28295.201,6.00,6,0.100,9965.000,0.200,654.000,0.300,207.000,0.500,80.000,1.000,3.000,5.000,0
"03/07/08","03:09:32",11422.000,"cc",28269.229,6.00,6,0.100,10333.000,0.200,706.000,0.300,260.000,0.500,110.000,1.000,13.000,5.000,0
"03/07/08","03:09:38",11144.000,"cc",28357.283,6.00,6,0.100,10146.000,0.200,686.000,0.300,216.000,0.500,83.000,1.000,13.000,5.000,0
"03/07/08","03:09:44",10906.000,"cc",28321.492,6.00,6,0.100,9941.000,0.200,640.000,0.300,238.000,0.500,83.000,1.000,4.000,5.000,0
"03/07/08","03:09:50",11116.000,"cc",28370.670,6.00,6,0.100,10148.000,0.200,664.000,0.300,220.000,0.500,79.000,1.000,5.000,5.000,0
"03/07/08","03:09:56",11152.000,"cc",28287.734,6.00,6,0.100,10154.000,0.200,685.000,0.300,240.000,0.500,71.000,1.000,2.000,5.000,0
"03/07/08","03:10:02",10971.000,"cc",28317.537,6.00,6,0.100,10018.000,0.200,631.000,0.300,231.000,0.500,89.000,1.000,2.000,5.000,0
"03/07/08","03:10:08",11134.000,"cc",28344.404,6.00,6,0.100,10147.000,0.200,676.000,0.300,246.000,0.500,63.000,1.000,2.000,5.000,0
"03/07/08","03:10:14",11178.000,"cc",28292.449,6.00,6,0.100,10209.000,0.200,677.000,0.300,214.000,0.500,76.000,1.000,2.000,5.000,0
"03/07/08","03:10:20",10957.000,"cc",28269.734,6.00,6,0.100,10018.000,0.200,647.000,0.300,220.000,0.500,70.000,1.000,2.000,5.000,0
"03/07/08","03:10:26",10818.000,"cc",28340.580,6.00,6,0.100,9979.000,0.200,591.000,0.300,191.000,0.500,55.000,1.000,2.000,5.000,0
"03/07/08","03:10:32",11001.000,"cc",28329.502,6.00,6,0.100,10027.000,0.200,663.000,0.300,231.000,0.500,73.000,1.000,7.000,5.000,0
"03/07/08","03:10:38",10987.000,"cc",28321.938,6.00,6,0.100,10071.000,0.200,653.000,0.300,217.000,0.500,45.000,1.000,1.000,5.000,0
"03/07/08","03:10:44",11448.000,"cc",28333.309,6.00,6,0.100,10528.000,0.200,651.000,0.300,202.000,0.500,67.000,1.000,0,5.000,0
"03/07/08","03:10:50",11295.000,"cc",28278.934,6.00,6,0.100,10323.000,0.200,680.000,0.300,224.000,0.500,66.000,1.000,2.000,5.000,0
"03/07/08","03:10:56",11033.000,"cc",28284.770,6.00,6,0.100,10089.000,0.200,668.000,0.300,203.000,0.500,69.000,1.000,4.000,5.000,0
"03/07/08","03:11:02",10948.000,"cc",28326.707,6.00,6,0.100,10000.000,0.200,627.000,0.300,255.000,0.500,64.000,1.000,2.000,5.000,0
"03/07/08","03:11:08",11246.000,"cc",28286.709,6.00,6,0.100,10232.000,0.200,691.000,0.300,244.000,0.500,78.000,1.000,1.000,5.000,0
"03/07/08","03:11:14",11273.000,"cc",28359.844,6.00,6,0.100,10250.000,0.200,645.000,0.300,267.000,0.500,103.000,1.000,8.000,5.000,0
"03/07/08","03:11:20",11208.000,"cc",28241.361,6.00,6,0.100,10212.000,0.200,664.000,0.300,242.000,0.500,88.000,1.000,2.000,5.000,0
"03/07/08","03:11:26",11212.000,"cc",28356.598,6.00,6,0.100,10305.000,0.200,630.000,0.300,208.000,0.500,68.000,1.000,1.000,5.000,0
"03/07/08","03:11:32",11161.000,"cc",28333.213,6.00,6,0.100,10206.000,0.200,648.000,0.300,229.000,0.500,74.000,1.000,4.000,5.000,0
"03/07/08","03:11:38",11149.000,"cc",28320.191,6.00,6,0.100,10173.000,0.200,667.000,0.300,230.000,0.500,75.000,1.000,4.000,5.000,0
"03/07/08","03:11:44",11180.000,"cc",28351.795,6.00,6,0.100,10223.000,0.200,712.000,0.300,198.000,0.500,46.000,1.000,1.000,5.000,0
"03/07/08","03:11:50",11187.000,"cc",28287.621,6.00,6,0.100,10301.000,0.200,652.000,0.300,191.000,0.500,43.000,1.000,0,5.000,0
"03/07/08","03:11:56",11199.000,"cc",28298.775,6.00,6,0.100,10251.000,0.200,658.000,0.300,239.000,0.500,49.000,1.000,2.000,5.000,0
"03/07/08","03:12:02",11412.000,"cc",28334.891,6.00,6,0.100,10426.000,0.200,659.000,0.300,255.000,0.500,69.000,1.000,3.000,5.000,0
"03/07/08","03:12:08",11121.000,"cc",28378.842,6.00,6,0.100,10196.000,0.200,645.000,0.300,215.000,0.500,65.000,1.000,0,5.000,0
"03/07/08","03:12:14",11519.000,"cc",28326.406,6.00,6,0.100,10554.000,0.200,686.000,0.300,220.000,0.500,59.000,1.000,0,5.000,0
"03/07/08","03:12:20",11380.000,"cc",28277.719,6.00,6,0.100,10360.000,0.200,665.000,0.300,274.000,0.500,78.000,1.000,3.000,5.000,0
"03/07/08","03:12:26",11177.000,"cc",28377.627,6.00,6,0.100,10251.000,0.200,627.000,0.300,229.000,0.500,68.000,1.000,2.000,5.000,0
"03/07/08","03:12:32",11251.000,"cc",28444.541,6.00,6,0.100,10283.000,0.200,668.000,0.300,224.000,0.500,74.000,1.000,2.000,5.000,0
"03/07/08","03:12:38",11293.000,"cc",28274.541,6.00,6,0.100,10295.000,0.200,682.000,0.300,254.000,0.500,58.000,1.000,4.000,5.000,0
"03/07/08","03:12:44",11404.000,"cc",28280.836,6.00,6,0.100,10498.000,0.200,630.000,0.300,207.000,0.500,68.000,1.000,1.000,5.000,0
"03/07/08","03:12:50",11388.000,"cc",28279.398,6.00,6,0.100,10426.000,0.200,658.000,0.300,245.000,0.500,58.000,1.000,1.000,5.000,0
"03/07/08","03:12:56",11501.000,"cc",28288.100,6.00,6,0.100,10486.000,0.200,698.000,0.300,238.000,0.500,77.000,1.000,2.000,5.000,0
"03/07/08","03:13:02",11604.000,"cc",28312.006,6.00,6,0.100,10573.000,0.200,683.000,0.300,238.000,0.500,101.000,1.000,9.000,5.000,0
"03/07/08","03:13:08",11623.000,"cc",28347.211,6.00,6,0.100,10543.000,0.200,713.000,0.300,265.000,0.500,94.000,1.000,8.000,5.000,0
"03/07/08","03:13:14",11117.000,"cc",28331.377,6.00,6,0.100,10150.000,0.200,661.000,0.300,241.000,0.500,62.000,1.000,3.000,5.000,0
"03/07/08","03:13:20",11295.000,"cc",28345.691,6.00,6,0.100,10305.000,0.200,657.000,0.300,251.000,0.500,79.000,1.000,3.000,5.000,0
"03/07/08","03:13:26",11569.000,"cc",28281.619,6.00,6,0.100,10565.000,0.200,651.000,0.300,242.000,0.500,109.000,1.000,2.000,5.000,0
"03/07/08","03:13:32",10997.000,"cc",28320.865,6.00,6,0.100,10110.000,0.200,621.000,0.300,209.000,0.500,51.000,1.000,6.000,5.000,0
"03/07/08","03:13:38",11459.000,"cc",28283.295,6.00,6,0.100,10462.000,0.200,622.000,0.300,276.000,0.500,96.000,1.000,3.000,5.000,0
"03/07/08","03:13:44",11570.000,"cc",28291.139,6.00,6,0.100,10558.000,0.200,668.000,0.300,235.000,0.500,102.000,1.000,7.000,5.000,0
"03/07/08","03:13:50",11495.000,"cc",28307.777,6.00,6,0.100,10498.000,0.200,682.000,0.300,230.000,0.500,85.000,1.000,0,5.000,0
"03/07/08","03:13:56",11683.000,"cc",28345.633,6.00,6,0.100,10745.000,0.200,677.000,0.300,208.000,0.500,53.000,1.000,0,5.000,0
"03/07/08","03:14:02",11684.000,"cc",28230.504,6.00,6,0.100,10740.000,0.200,647.000,0.300,223.000,0.500,65.000,1.000,9.000,5.000,0
"03/07/08","03:14:08",11526.000,"cc",28361.570,6.00,6,0.100,10581.000,0.200,656.000,0.300,227.000,0.500,60.000,1.000,2.000,5.000,0
"03/07/08","03:14:14",11650.000,"cc",28386.842,6.00,6,0.100,10714.000,0.200,631.000,0.300,230.000,0.500,73.000,1.000,2.000,5.000,0
"03/07/08","03:14:20",11365.000,"cc",28259.961,6.00,6,0.100,10491.000,0.200,627.000,0.300,204.000,0.500,43.000,1.000,0,5.000,0
"03/07/08","03:14:26",11462.000,"cc",28283.873,6.00,6,0.100,10457.000,0.200,671.000,0.300,256.000,0.500,76.000,1.000,2.000,5.000,0
"03/07/08","03:14:32",11368.000,"cc",28400.756,6.00,6,0.100,10456.000,0.200,655.000,0.300,207.000,0.500,47.000,1.000,3.000,5.000,0
"03/07/08","03:14:38",11585.000,"cc",28267.119,6.00,6,0.100,10569.000,0.200,676.000,0.300,258.000,0.500,81.000,1.000,1.000,5.000,0
"03/07/08","03:14:44",11560.000,"cc",28256.981,6.00,6,0.100,10568.000,0.200,654.000,0.300,254.000,0.500,82.000,1.000,2.000,5.000,0
"03/07/08","03:14:50",11629.000,"cc",28332.914,6.00,6,0.100,10605.000,0.200,713.000,0.300,236.000,0.500,74.000,1.000,1.000,5.000,0
"03/07/08","03:14:56",11443.000,"cc",28383.455,6.00,6,0.100,10531.000,0.200,654.000,0.300,196.000,0.500,60.000,1.000,2.000,5.000,0
"03/07/08","03:15:02",11344.000,"cc",28367.291,6.00,6,0.100,10483.000,0.200,661.000,0.300,160.000,0.500,38.000,1.000,2.000,5.000,0
"03/07/08","03:15:08",11322.000,"cc",28306.176,6.00,6,0.100,10436.000,0.200,657.000,0.300,181.000,0.500,47.000,1.000,1.000,5.000,0
"03/07/08","03:15:14",11344.000,"cc",28282.232,6.00,6,0.100,10399.000,0.200,681.000,0.300,209.000,0.500,53.000,1.000,2.000,5.000,0
"03/07/08","03:15:20",11502.000,"cc",28267.779,6.00,6,0.100,10538.000,0.200,685.000,0.300,213.000,0.500,64.000,1.000,2.000,5.000,0
"03/07/08","03:15:26",11423.000,"cc",28344.463,6.00,6,0.100,10542.000,0.200,658.000,0.300,177.000,0.500,44.000,1.000,2.000,5.000,0
"03/07/08","03:15:32",11701.000,"cc",28379.834,6.00,6,0.100,10808.000,0.200,676.000,0.300,170.000,0.500,47.000,1.000,0,5.000,0
"03/07/08","03:15:38",11513.000,"cc",28307.084,6.00,6,0.100,10637.000,0.200,635.000,0.300,209.000,0.500,31.000,1.000,1.000,5.000,0
"03/07/08","03:15:44",11704.000,"cc",28278.033,6.00,6,0.100,10711.000,0.200,757.000,0.300,180.000,0.500,55.000,1.000,1.000,5.000,0
"03/07/08","03:15:50",11543.000,"cc",28284.674,6.00,6,0.100,10698.000,0.200,624.000,0.300,189.000,0.500,30.000,1.000,2.000,5.000,0
"03/07/08","03:15:56",11265.000,"cc",28338.418,6.00,6,0.100,10379.000,0.200,622.000,0.300,209.000,0.500,53.000,1.000,2.000,5.000,0
"03/07/08","03:16:02",11544.000,"cc",28370.633,6.00,6,0.100,10570.000,0.200,662.000,0.300,243.000,0.500,63.000,1.000,6.000,5.000,0
"03/07/08","03:16:08",11603.000,"cc",28282.791,6.00,6,0.100,10715.000,0.200,616.000,0.300,197.000,0.500,72.000,1.000,3.000,5.000,0
"03/07/08","03:16:14",11511.000,"cc",28283.270,6.00,6,0.100,10644.000,0.200,615.000,0.300,205.000,0.500,47.000,1.000,0,5.000,0
"03/07/08","03:16:20",11162.000,"cc",28276.045,6.00,6,0.100,10354.000,0.200,582.000,0.300,184.000,0.500,38.000,1.000,4.000,5.000,0
"03/07/08","03:16:26",11523.000,"cc",28268.512,6.00,6,0.100,10632.000,0.200,661.000,0.300,181.000,0.500,47.000,1.000,2.000,5.000,0
"03/07/08","03:16:32",11286.000,"cc",28343.045,6.00,6,0.100,10433.000,0.200,638.000,0.300,173.000,0.500,40.000,1.000,2.000,5.000,0
"03/07/08","03:16:38",11708.000,"cc",28365.182,6.00,6,0.100,10756.000,0.200,710.000,0.300,198.000,0.500,44.000,1.000,0,5.000,0
"03/07/08","03:16:44",11610.000,"cc",28354.512,6.00,6,0.100,10722.000,0.200,620.000,0.300,211.000,0.500,57.000,1.000,0,5.000,0
"03/07/08","03:16:50",11365.000,"cc",28295.320,6.00,6,0.100,10484.000,0.200,652.000,0.300,178.000,0.500,51.000,1.000,0,5.000,0
"03/07/08","03:16:56",11548.000,"cc",28269.815,6.00,6,0.100,10589.000,0.200,684.000,0.300,217.000,0.500,56.000,1.000,2.000,5.000,0
"03/07/08","03:17:02",11175.000,"cc",28286.572,6.00,6,0.100,10359.000,0.200,582.000,0.300,181.000,0.500,50.000,1.000,3.000,5.000,0
"03/07/08","03:17:08",11469.000,"cc",28385.576,6.00,6,0.100,10653.000,0.200,656.000,0.300,140.000,0.500,19.000,1.000,1.000,5.000,0